Location: Boissi�res
(45.2500°N, 2.3667°E)
Time: 15:48:39
(UTC+00:00)

Okean 3 - Pass Details

Date: 03 March 2021
Orbit: 576 x 600 km, 82.5° (Epoch: 23 April)

Event Time Altitude Azimuth Distance (km) Brightness Sun altitude
Rises 20:13:24 0° 345° (NNW) 2,833 7.4 -27.3°
Reaches altitude 10° 20:15:40 10° 339° (NNW) 1,931 6.6 -27.7°
Enters shadow 20:19:28 45° 279° (W) 815 4.5 -28.3°
